This demonstration page uses our WeatherBlox Daily Observations layout. Learn more.

Left ArrowRight Arrow

36.19886, -115.1175

Hourly Observations for October 2, 2020

Temp ( °F °C ) Dew Point ( °F °C ) Humidity (%) Winds ( mph kmh ) Pressure ( in mb ) Visibility ( mi km ) Precip ( " mm )
12:53 am 00:53 Clear 74 23.3 20 -6.7 13 13 WNW 7 11 29.98 1015 10 16 0.00 0.00
1:53 am 01:53 Clear 73 22.8 22 -5.6 15 15 W 8 13 29.99 1016 10 16 0.00 0.00
2:53 am 02:53 Clear 72 22.2 23 -5 16 16 NW 3 6 29.99 1016 10 16 0.00 0.00
3:53 am 03:53 Clear 69 20.6 17 -8.3 14 14 WNW 7 11 29.98 1015 10 16 0.00 0.00
4:53 am 04:53 Clear 68 20 19 -7.2 15 15 NW 7 11 29.99 1016 10 16 0.00 0.00
5:53 am 05:53 Clear 72 22.2 11 -11.7 9 9 NW 12 19 29.99 1016 10 16 0.00 0.00
6:53 am 06:53 Sunny 71 21.7 15 -9.4 12 12 Calm 30.02 1017 10 16 0.00 0.00
7:53 am 07:53 Sunny 72 22.2 16 -8.9 12 12 Calm 30.04 1017 10 16 0.00 0.00
8:53 am 08:53 Sunny 83 28.3 13 -10.6 7 7 WNW 7 11 30.03 1017 10 16 0.00 0.00
9:53 am 09:53 Sunny 87 30.6 13 -10.6 6 6 NW 7 11 30.03 1017 10 16 0.00 0.00
10:53 am 10:53 Sunny 90 32.2 14 -10 6 6 Calm 30.01 1016 10 16 0.00 0.00
11:53 am 11:53 Sunny 92 33.3 13 -10.6 5 5 E 3 6 29.99 1016 10 16 0.00 0.00
12:53 pm 12:53 Sunny 94 34.4 14 -10 5 5 SE 6 9 29.97 1015 10 16 0.00 0.00
1:53 pm 13:53 Sunny 96 35.6 13 -10.6 5 5 Calm 29.93 1014 10 16 0.00 0.00
2:53 pm 14:53 Sunny 98 36.7 13 -10.6 4 4 S 6 9 29.90 1013 10 16 0.00 0.00
3:53 pm 15:53 Sunny 98 36.7 13 -10.6 4 4 Calm 29.89 1012 10 16 0.00 0.00
4:53 pm 16:53 Sunny 99 37.2 13 -10.6 4 4 VRB 3 6 29.87 1012 10 16 0.00 0.00
5:53 pm 17:53 Sunny 97 36.1 13 -10.6 4 4 E 3 6 29.86 1011 10 16 0.00 0.00
6:36 pm 18:36 Hazy 95 35 14 -10 5 5 Calm 29.70 1006 2 3 0.00 0.00
6:46 pm 18:46 Clear 94 34.4 17 -8.3 6 6 Calm 29.71 1006 10 16 0.00 0.00
6:53 pm 18:53 Clear 93 33.9 18 -7.8 6 6 Calm 29.87 1012 10 16 0.00 0.00
7:53 pm 19:53 Clear 88 31.1 26 -3.3 10 10 W 7 11 29.88 1012 10 16 0.00 0.00
8:53 pm 20:53 Clear 83 28.3 24 -4.4 11 11 NW 7 11 29.87 1012 10 16 0.00 0.00
9:53 pm 21:53 Clear 80 26.7 21 -6.1 11 11 NW 5 7 29.88 1012 10 16 0.00 0.00
10:53 pm 22:53 Clear 77 25 21 -6.1 12 12 NW 9 15 29.88 1012 10 16 0.00 0.00
11:53 pm 23:53 Clear 81 27.2 12 -11.1 7 7 NW 12 19 29.87 1011 10 16 0.00 0.00

Powered by AerisWeather